Flag for Germany Weather past 2 weeks in Saarbrücken, Saarland, Germany

Now
37 °F

Broken clouds.


Feels Like: 30 °F
Forecast: 32 / 42 °F
Wind: 12 mph from West

Location: Saarbruecken / Ensheim

Current Time: Mar 4, 2015 at 10:41:25 AM

Latest Report: Mar 4, 2015 at 10:20 AM


Visibility: N/A

Pressure: 30.30 "Hg

Humidity: 75%

Dew point: 30 °F

Location of SaarbrückenLocation

Historic Weather in Saarbrücken — Graph

°F

Saarbrücken temperature yesterday

Maximum temperature yesterday: 50 °F (at 1:50 PM)
Minimum temperature yesterday: 32 °F (at 4:50 AM)
Average temperature yesterday: 40 °F

Past Weeks' High & Low Weather Summary

 TemperatureHumidityPressure
High52 °F (Feb 20, 3:50 PM)100% (Feb 17, 9:20 AM)30.69 "Hg (Feb 17, 9:20 AM)
Low27 °F (Feb 28, 5:50 AM)39% (Feb 28, 2:50 PM)29.45 "Hg (Feb 23, 12:50 PM)
Average38 °F83%29.99 "Hg
* Reported Feb 17 9:20 AM — Mar 4 9:20 AM, Saarbrücken, Weather by CustomWeather, © 2015

Note: Actual official high and low records may vary slightly from our data, if they occured in-between our weather recording intervals... More about our weather records

Advertising

Saarbrücken weather history for previous 24 hours

 ConditionsComfort  
Time TempWeatherWind HumidityBarometerVisibility
9:20 AM
Wed, Mar 4
36 °FBroken clouds.13 mph87%30.30 "HgN/A
8:50 AM36 °FBroken clouds.12 mph87%30.30 "HgN/A
8:20 AM36 °FBroken clouds.8 mph87%30.27 "HgN/A
7:50 AM34 °FBroken clouds.8 mph93%30.27 "HgN/A
7:20 AM34 °FBroken clouds.7 mph87%30.24 "HgN/A
6:50 AM34 °FPassing clouds.8 mph93%30.24 "HgN/A
6:20 AM36 °FPartly cloudy.9 mph87%30.24 "HgN/A
5:50 AM36 °FPartly cloudy.8 mph87%30.24 "HgN/A
5:20 AM36 °FPassing clouds.5 mph87%30.24 "HgN/A
4:50 AM36 °FPassing clouds.9 mph87%30.21 "HgN/A
4:20 AM36 °FPassing clouds.7 mph87%30.21 "HgN/A
3:50 AM36 °FPassing clouds.10 mph87%30.21 "HgN/A
3:20 AM36 °FPassing clouds.12 mph87%30.21 "HgN/A
2:50 AM36 °FPassing clouds.9 mph87%30.21 "HgN/A
2:20 AM36 °FPassing clouds.12 mph93%30.18 "HgN/A
1:50 AM36 °FPassing clouds.10 mph93%30.18 "HgN/A
1:20 AM37 °FPassing clouds.10 mph93%30.18 "HgN/A
12:50 AM37 °FPassing clouds.12 mph93%30.18 "HgN/A
12:20 AM37 °FPassing clouds.12 mph93%30.15 "HgN/A
11:50 PM
Tue, Mar 3
37 °FPartly cloudy.7 mph93%30.15 "HgN/A
11:20 PM37 °FPartly cloudy.7 mph93%30.15 "HgN/A
10:50 PM37 °FLight rain. Partly cloudy.9 mph87%30.12 "HgN/A
10:20 PM37 °FLight rain. Partly cloudy.9 mph93%30.15 "HgN/A
9:50 PM37 °FLight rain. Partly cloudy.9 mph93%30.12 "HgN/A
9:20 PM37 °FRain showers. Partly cloudy.15 mph87%30.12 "HgN/A
8:50 PM39 °FSprinkles. Partly cloudy.23 mph87%30.09 "HgN/A
8:20 PM45 °FLight rain. Passing clouds.16 mph61%30.09 "HgN/A
7:50 PM46 °FLight rain. Passing clouds.16 mph57%30.07 "HgN/A
7:20 PM45 °FLight rain. Passing clouds.13 mph57%30.07 "HgN/A
6:50 PM45 °FPassing clouds.10 mph57%30.07 "HgN/A
6:20 PM46 °FPassing clouds.14 mph53%30.07 "HgN/A
5:50 PM46 °FSunny.13 mph53%30.07 "Hg10 mi
5:20 PM46 °FPartly sunny.14 mph53%30.07 "HgN/A
4:50 PM46 °FBroken clouds.15 mph53%30.07 "HgN/A
4:20 PM48 °FScattered clouds.21 mph46%30.09 "HgN/A
3:50 PM48 °FScattered clouds.22 mph50%30.09 "HgN/A
3:20 PM48 °FScattered clouds.20 mph46%30.09 "HgN/A
2:50 PM48 °FScattered clouds.21 mph50%30.09 "HgN/A
2:20 PM50 °FPassing clouds.22 mph50%30.09 "HgN/A
1:50 PM50 °FScattered clouds.15 mph54%30.12 "HgN/A
1:20 PM46 °FScattered clouds.18 mph62%30.12 "HgN/A
12:50 PM48 °FScattered clouds.20 mph62%30.12 "HgN/A
12:20 PM45 °FScattered clouds.15 mph66%30.15 "HgN/A
11:50 AM43 °FScattered clouds.12 mph66%30.15 "HgN/A
11:20 AM43 °FScattered clouds.13 mph66%30.15 "HgN/A
10:50 AM41 °FScattered clouds.10 mph76%30.15 "HgN/A
10:20 AM37 °FScattered clouds.12 mph75%30.18 "HgN/A
Weather by CustomWeather, © 2015

See weather overviewHow to use our weather pages